Regional Weather Roundup
Issued by NWS

Home | Current Version | Previous Version | Graphics & Text | Print | Product List | Glossary On
Versions: 1 2 3 4 5 6 7 8 9 10 11 12 13 14 15 16 17 18 19 20 21 22 23 24 25 26 27 28 29 30 31 32 33 34 35 36 37 38 39 40 41 42 43 44 45 46 47 48 49 50
000
ASUS43 KIND 271259
RWRIN

WEATHER ROUNDUP FOR INDIANA
NATIONAL WEATHER SERVICE INDIANAPOLIS IN
900 AM EDT THU APR 27 2017

NOTE: "FAIR" INDICATES FEW OR NO CLOUDS BELOW 12,000 FEET WITH NO
SIGNIFICANT WEATHER AND/OR OBSTRUCTIONS TO VISIBILITY.

* - STATION DOES NOT REPORT WEATHER SUCH AS PRECIPITATION OR FOG.

+ - STATION NOT QUALITY CONTROLLED BY THE NATIONAL WEATHER SERVICE.
    USE DATA WITH CAUTION...ESPECIALLY DEWPOINT AND RELATIVE
    HUMIDITY OBSERVATIONS.

INZ001>003-010>013-019-020-271400-
NORTHWEST INDIANA

CITY           SKY/WX    TMP DP  RH WIND       PRES   REMARKS
GARY /AIRPORT/ CLOUDY    50  45  81 SW26G43   29.44R
KNOX *+        CLOUDY    55  36  47 SW25G36   29.45R
MONTICELLO +   CLOUDY    51  47  86 SW17G29   29.52R

$$

LMZ046-743>745-271400-
SOUTHERN LAKE MICHIGAN

STATION/POSITION TIME  TEMP    WIND        PRES    WAVE
                       AIR SEA DIR/SP/G            HT
                 (UTC) (F)     (DEG/KT/KT) (MB)    (FT)
BURNS HARBOR     1240   54     220/ 23/ 31  996.3R
MICHIGAN CITY    1230   59     180/ 26/ 31   N/A
5NW MICH CITY    1250   55 49                N/A     5

$$

INZ004-005-014>016-021>024-271400-
NORTH CENTRAL INDIANA

CITY           SKY/WX    TMP DP  RH WIND       PRES   REMARKS
ELKHART        CLOUDY    63  54  72 S20G29    29.42R
GOSHEN         PTSUNNY   64  53  67 S28G39    29.43S
PERU/GRISSOM   PTSUNNY   63  59  88 SW26      29.47R
SOUTH BEND     CLOUDY    61  53  75 SW26G37   29.42R

$$

INZ006>009-017-018-025>027-271400-
NORTHEAST INDIANA

CITY           SKY/WX    TMP DP  RH WIND       PRES   REMARKS
ANGOLA *+      PTSUNNY   63  55  77 S21       29.47S
FORT WAYNE     LGT RAIN  64  54  69 S22G31    29.50R
KENDALLVILLE + CLOUDY    63  55  76 S20G31    29.48S

$$

INZ028-029-035-036-043>045-051>053-271400-
WEST CENTRAL INDIANA

CITY           SKY/WX    TMP DP  RH WIND       PRES   REMARKS
CRAWFORDSVL +  CLOUDY    48  48 100 SW16G25   29.57R
GREENCASTLE +  CLOUDY    50  48  93 W7        29.59R FOG
LAFAYETTE      CLOUDY    50  46  86 W15G23    29.55R
TERRE HAUTE    CLOUDY    51  45  79 W17       29.61R

$$

INZ030>032-037>040-046>048-054>057-064-065-271400-
CENTRAL INDIANA

CITY           SKY/WX    TMP DP  RH WIND       PRES   REMARKS
ANDERSON       PTSUNNY   63  55  77 S17G29    29.53
CP ATTERBURY + CLOUDY    63  55  77 SW12G21   29.56R
COLUMBUS       PTSUNNY   63  55  77 S14       29.56R
INDIANAPOLIS   PTSUNNY   59  53  80 SW21G31   29.54R
-EAGLE CREEK   CLOUDY    60  53  77 SW13G25   29.53R
KOKOMO +       CLOUDY    62  56  80 SW20G26   29.50R
SHELBYVILLE    CLOUDY    65  55  70 S15       29.55R

$$

INZ033-034-041-042-049-050-058-059-271400-
EAST CENTRAL INDIANA

CITY           SKY/WX    TMP DP  RH WIND       PRES   REMARKS
MUNCIE         PTSUNNY   63  55  75 S12G23    29.53R
RICHMOND +     HVY RAIN  59  55  88 S16G22    29.60R

$$

INZ060-061-067>069-081>083-085>088-271400-
SOUTHWEST INDIANA

CITY           SKY/WX    TMP DP  RH WIND       PRES   REMARKS
EVANSVILLE     CLOUDY    52  47  83 W15G22    29.67R
HUNTINGBURG *+ CLOUDY    53  50  89 W18       29.65R

$$

INZ062-063-066-070>080-084-089>092-271400-
SOUTH CENTRAL AND SOUTHEAST INDIANA

CITY           SKY/WX    TMP DP  RH WIND       PRES   REMARKS
BLOOMINGTON    CLOUDY    55  50  83 W13G24    29.59R
MADISON *+     CLOUDY    61  59  94 S8G17     29.63R
SEYMOUR +      CLOUDY    63  59  88 W10       29.58R

$$





USA.gov is the U.S. government's official web portal to all federal, state and local government web resources and services.